Tracking 22438 objects as of 24-Feb-2021
HD Live streaming from Space Station
objects crossing your sky now

DELTA 1 DEB

Track DELTA 1 DEB now!
10-day predictions


NORAD ID: 21680
Int'l Code: 1975-052JG
Perigee: 1,084.7 km
Apogee: 1,676.1 km
Inclination: 99.6 °
Period: 113.2 minutes
Semi major axis: 7751 km
RCS: 0.0342 m2 (small)
Launch date: June 12, 1975
Source: United States (US)
Launch site: AIR FORCE WESTERN TEST RANGE (AFWTR)

Note: This is SATELLITE DEBRIS
aabbcc
Your satellite tracking list
Your tracking list is empty




NASA's NSSDC Master Catalog

Two Line Element Set (TLE):
1 21680U 75052JG  21053.62157181  .00000035  00000-0  25479-3 0  9996
2 21680  99.5913 110.7382 0381497 203.1850 315.3852 12.72129580376301
Source of the keplerian elements: AFSPC